Regional Weather Roundup
Issued by NWS

Home | Current Version | Previous Version | Graphics & Text | Print | Product List | Glossary On
Versions: 1 2 3 4 5 6 7 8 9 10 11 12 13 14 15 16 17 18 19 20 21 22 23 24 25 26 27 28 29 30 31 32 33 34 35 36 37 38 39 40 41 42 43 44 45 46 47 48 49 50
000
ASUS43 KBIS 151710
RWRND

NORTH DAKOTA REGIONAL WEATHER ROUNDUP
NATIONAL WEATHER SERVICE BISMARCK ND
1100 AM CST FRI DEC 15 2017

NOTE: "FAIR" INDICATES FEW OR NO CLOUDS BELOW 12,000 FEET WITH NO
SIGNIFICANT WEATHER AND/OR OBSTRUCTIONS TO VISIBILITY.


NDZ001>003-009>011-017-151800-
NORTHWEST NORTH DAKOTA

CITY           SKY/WX    TMP DP  RH WIND       PRES   REMARKS
WILLISTON      MOSUNNY   36  23  60 SW9       29.64F
MINOT          CLOUDY    35  26  69 S12       29.63F
MINOT AFB      CLOUDY    33  25  71 S8        29.62F
$$

NDZ018>021-031>035-040>046-151800-
SOUTHWEST NORTH DAKOTA

CITY           SKY/WX    TMP DP  RH WIND       PRES   REMARKS
BISMARCK       CLOUDY    32  25  75 SE5       29.71F
DICKINSON      CLOUDY    37  23  56 W17       29.65S
GARRISON         N/A     34  25  69 SW9       29.64F
HETTINGER ARPT MOSUNNY   37  22  54 W16       29.72F
$$

NDZ004>008-012>016-024-026-027-054-151800-
NORTHEAST NORTH DAKOTA

CITY           SKY/WX    TMP DP  RH WIND       PRES   REMARKS
GRAND FORKS    FLURRIES  19  15  84 S13       29.81F WCI   6
GRND FRKS AFB  CLOUDY    19  16  86 S12       29.78F WCI   7
DEVILS LAKE    CLOUDY    25  23  92 S10       29.71F WCI  15
$$

NDZ022-023-025-028>030-036>039-047>053-151800-
SOUTHEAST NORTH DAKOTA

CITY           SKY/WX    TMP DP  RH WIND       PRES   REMARKS
FARGO          CLOUDY    22  17  81 S10       29.82F WCI  11
JAMESTOWN      CLOUDY    27  25  92 S7        29.73F WCI  19
$$




USA.gov is the U.S. government's official web portal to all federal, state and local government web resources and services.